Weather History for K2G4 - February, 2013

Change the Weather History Date:

Tuesday, February 5, 2013

  Actual Average (KMGW) Record (KMGW)
Temperature  
Mean Temperature 29 °F 32 °F  
Max Temperature 32 °F 41 °F 64 °F (2008)
Min Temperature 26 °F 24 °F -1 °F (1996)
Degree Days  
Heating Degree Days 36 32  
Month to date heating degree days 164  
Since 1 July heating degree days 3191  
Cooling Degree Days 0 0  
Month to date cooling degree days 0  
Year to date cooling degree days 0  
Moisture  
Dew Point 29 °F    
Average Humidity 100    
Maximum Humidity 100    
Minimum Humidity 100    
Precipitation  
Precipitation 0.00 in 0.09 in - ()
Month to date precipitation 0.45  
Year to date precipitation 3.26  
Sea Level Pressure  
Sea Level Pressure 29.77 in    
Wind  
Wind Speed 9 mph (WSW)    
Max Wind Speed 17 mph    
Max Gust Speed 31 mph    
Visibility 3 miles    
Events Fog    
T = Trace of Precipitation, MM = Missing Value Source: NWS Daily Summary

Daily Weather History Graph

Daily Weather History Graph

Search for Another Location

Airport or City:

Trip Planner

Search our weather history database for the weather conditions in past years. The results will help you decide how hot, cold, wet, or windy it might be!

Date:

Astronomy

Feb. 05, 2013 Rise Set
Actual Time 7:20 AM EST 5:42 PM EST
Civil Twilight 6:52 AM EST 6:10 PM EST
Nautical Twilight 6:20 AM EST 6:42 PM EST
Astronomical Twilight 5:49 AM EST 7:14 PM EST
Moon 3:00 AM EST 12:58 PM EST
Length of Visible Light 11h 17m
Length of Day
10h 21m
Waning Crescent, 27% of the Moon is Illuminated
Feb 5
Waning Crescent
Feb 10
New
Feb 17
First Quarter
Feb 25
Full
Mar 4
Last Quarter

Hourly Weather History & Observations

Time (EST) Temp. Windchill Dew Point Humidity Pressure Visibility Wind Dir Wind Speed Gust Speed Precip Events Conditions
12:05 AM 28.4 °F 21.2 °F 28.4 °F 100% 29.74 in 0.5 mi West 6.9 mph - N/A Fog Light Freezing Fog
12:50 AM 30.2 °F 21.9 °F 30.2 °F 100% 29.74 in 1.5 mi WSW 9.2 mph - N/A   Overcast
1:10 AM 30.2 °F 22.6 °F 30.2 °F 100% 29.74 in 2.5 mi WSW 8.1 mph 17.3 mph N/A   Overcast
1:30 AM 30.2 °F 21.3 °F 30.2 °F 100% 29.74 in 2.5 mi WSW 10.4 mph 16.1 mph N/A   Overcast
1:50 AM 30.2 °F 21.3 °F 30.2 °F 100% 29.73 in 2.5 mi WSW 10.4 mph 18.4 mph N/A   Overcast
2:15 AM 30.2 °F 21.3 °F 30.2 °F 100% 29.74 in 2.0 mi WSW 10.4 mph - N/A   Overcast
2:35 AM 30.2 °F 21.9 °F 30.2 °F 100% 29.73 in 1.8 mi West 9.2 mph - N/A   Overcast
2:55 AM 30.2 °F 24.3 °F 30.2 °F 100% 29.73 in 1.8 mi West 5.8 mph - N/A   Overcast
3:20 AM 30.2 °F 26.7 °F 30.2 °F 100% 29.74 in 1.8 mi West 3.5 mph - N/A   Overcast
4:00 AM 30.2 °F 21.9 °F 30.2 °F 100% 29.73 in 1.5 mi West 9.2 mph - N/A   Overcast
4:20 AM 30.2 °F 23.4 °F 30.2 °F 100% 29.73 in 1.0 mi West 6.9 mph - N/A   Overcast
4:45 AM 28.4 °F 20.4 °F 28.4 °F 100% 29.74 in 1.5 mi West 8.1 mph 18.4 mph N/A   Overcast
6:10 AM 28.4 °F 18.5 °F 28.4 °F 100% 29.76 in 2.0 mi West 11.5 mph - N/A   Overcast
6:30 AM 28.4 °F 22.2 °F 28.4 °F 100% 29.76 in 1.0 mi WSW 5.8 mph - N/A   Overcast
6:50 AM 28.4 °F 23.3 °F 28.4 °F 100% 29.76 in 1.8 mi WSW 4.6 mph - N/A   Overcast
7:15 AM 28.4 °F 20.4 °F 28.4 °F 100% 29.76 in 3.0 mi West 8.1 mph - N/A   Overcast
7:55 AM 28.4 °F 20.4 °F 28.4 °F 100% 29.78 in 0.5 mi West 8.1 mph - N/A Fog Light Freezing Fog
8:15 AM 28.4 °F 19.7 °F 28.4 °F 100% 29.78 in 1.0 mi West 9.2 mph 16.1 mph N/A   Mostly Cloudy
8:40 AM 28.4 °F 22.2 °F 28.4 °F 100% 29.78 in 7.0 mi West 5.8 mph - N/A   Overcast
9:00 AM 28.4 °F 22.2 °F 28.4 °F 100% 29.78 in 7.0 mi WSW 5.8 mph - N/A   Overcast
9:20 AM 28.4 °F 22.2 °F 28.4 °F 100% 29.78 in 5.0 mi WSW 5.8 mph - N/A   Overcast
9:40 AM 28.4 °F 20.4 °F 28.4 °F 100% 29.78 in 4.0 mi SW 8.1 mph - N/A   Overcast
10:05 AM 28.4 °F 21.2 °F 28.4 °F 100% 29.78 in 3.0 mi SW 6.9 mph - N/A   Overcast
10:25 AM 28.4 °F 21.2 °F 28.4 °F 100% 29.78 in 4.0 mi SW 6.9 mph - N/A   Overcast
10:45 AM 30.2 °F 24.3 °F 30.2 °F 100% 29.78 in 4.0 mi SW 5.8 mph - N/A   Overcast
11:05 AM 30.2 °F 22.6 °F 30.2 °F 100% 29.78 in 2.0 mi WSW 8.1 mph - N/A   Overcast
11:50 AM 30.2 °F 23.4 °F 30.2 °F 100% 29.77 in 1.2 mi WSW 6.9 mph - N/A   Overcast
12:10 PM 30.2 °F 24.3 °F 30.2 °F 100% 29.76 in 1.0 mi WSW 5.8 mph - N/A   Overcast
12:30 PM 30.2 °F 22.6 °F 30.2 °F 100% 29.75 in 0.8 mi SW 8.1 mph - N/A   Overcast
12:55 PM 32.0 °F 25.6 °F 32.0 °F 100% 29.74 in 0.5 mi WSW 6.9 mph 17.3 mph N/A Fog Light Freezing Fog
1:15 PM 32.0 °F 22.5 °F 32.0 °F 100% 29.74 in 1.5 mi SW 12.7 mph 18.4 mph N/A   Overcast
1:55 PM 32.0 °F 23.0 °F 32.0 °F 100% 29.73 in 0.5 mi WSW 11.5 mph 24.2 mph N/A Fog Fog
2:20 PM 32.0 °F 20.8 °F 32.0 °F 100% 29.72 in 2.0 mi WSW 17.3 mph 26.5 mph N/A   Overcast
2:40 PM 32.0 °F 21.6 °F 32.0 °F 100% 29.73 in 5.0 mi WSW 15.0 mph 26.5 mph N/A   Overcast
3:00 PM 32.0 °F 21.2 °F 32.0 °F 100% 29.73 in 2.0 mi WSW 16.1 mph 28.8 mph N/A   Overcast
3:20 PM 32.0 °F 23.0 °F 32.0 °F 100% 29.74 in 10.0 mi West 11.5 mph 24.2 mph N/A   Overcast
3:45 PM 32.0 °F 23.0 °F 32.0 °F 100% 29.74 in 10.0 mi WSW 11.5 mph 31.1 mph N/A   Overcast
4:05 PM 32.0 °F 21.6 °F 32.0 °F 100% 29.75 in 10.0 mi WSW 15.0 mph 25.3 mph N/A   Overcast
4:25 PM 30.2 °F 21.3 °F 30.2 °F 100% 29.75 in 7.0 mi WSW 10.4 mph 24.2 mph N/A   Overcast
4:45 PM 30.2 °F 18.9 °F 30.2 °F 100% 29.75 in 5.0 mi WSW 16.1 mph 24.2 mph N/A   Overcast
5:10 PM 30.2 °F 21.3 °F 30.2 °F 100% 29.76 in 3.0 mi WSW 10.4 mph 20.7 mph N/A   Overcast
5:30 PM 30.2 °F 20.8 °F 30.2 °F 100% 29.77 in 1.2 mi WSW 11.5 mph 26.5 mph N/A   Overcast
5:50 PM 28.4 °F 18.0 °F 28.4 °F 100% 29.77 in 1.2 mi West 12.7 mph 23.0 mph N/A   Overcast
6:10 PM 28.4 °F 19.1 °F 28.4 °F 100% 29.77 in 1.8 mi WSW 10.4 mph 17.3 mph N/A   Overcast
6:35 PM 28.4 °F 20.4 °F 28.4 °F 100% 29.78 in 1.2 mi West 8.1 mph 18.4 mph N/A   Overcast
6:55 PM 28.4 °F 22.2 °F 28.4 °F 100% 29.78 in 1.8 mi WSW 5.8 mph - N/A   Overcast
7:15 PM 28.4 °F 19.1 °F 28.4 °F 100% 29.78 in 1.5 mi West 10.4 mph - N/A   Overcast
7:35 PM 28.4 °F 18.5 °F 28.4 °F 100% 29.79 in 1.2 mi WSW 11.5 mph 20.7 mph N/A   Mostly Cloudy
8:00 PM 28.4 °F 19.7 °F 28.4 °F 100% 29.80 in 1.2 mi WSW 9.2 mph 16.1 mph N/A   Mist
8:20 PM 26.6 °F 18.2 °F 26.6 °F 100% 29.80 in 1.0 mi WSW 8.1 mph - N/A   Mist
8:40 PM 26.6 °F 18.2 °F 26.6 °F 100% 29.81 in 1.2 mi WSW 8.1 mph - N/A   Mist
9:00 PM 26.6 °F 18.2 °F 26.6 °F 100% 29.81 in 1.5 mi West 8.1 mph - N/A   Mist
9:25 PM 28.4 °F 19.7 °F 28.4 °F 100% 29.81 in 2.0 mi West 9.2 mph - N/A   Overcast
9:45 PM 28.4 °F 19.1 °F 28.4 °F 100% 29.82 in 1.5 mi West 10.4 mph 16.1 mph N/A   Overcast
10:05 PM 28.4 °F 19.7 °F 28.4 °F 100% 29.83 in 1.8 mi West 9.2 mph - N/A   Overcast
10:25 PM 28.4 °F 19.7 °F 28.4 °F 100% 29.83 in 1.5 mi West 9.2 mph - N/A   Overcast
10:50 PM 28.4 °F 21.2 °F 28.4 °F 100% 29.83 in 2.5 mi West 6.9 mph - N/A   Overcast
11:10 PM 28.4 °F 21.2 °F 28.4 °F 100% 29.83 in 2.5 mi West 6.9 mph - N/A   Overcast
11:30 PM 28.4 °F 19.7 °F 28.4 °F 100% 29.83 in 3.0 mi West 9.2 mph - N/A   Overcast
11:55 PM 28.4 °F 24.6 °F 28.4 °F 100% 29.83 in 4.0 mi West 3.5 mph - N/A   Overcast